Regional Weather Roundup
Issued by NWS

Home | Current Version | Previous Version | Graphics & Text | Print | Product List | Glossary On
Versions: 1 2 3 4 5 6 7 8 9 10 11 12 13 14 15 16 17 18 19 20 21 22 23 24 25 26 27 28 29 30 31 32 33 34 35 36 37 38 39 40 41 42 43 44 45 46 47 48 49 50
000
ASUS43 KLOT 052010
RWRIL

ILLINOIS REGIONAL WEATHER ROUNDUP
NATIONAL WEATHER SERVICE CHICAGO/ROMEOVILLE IL
200 PM CST THU MAR 05 2015

NOTE: "FAIR" INDICATES FEW OR NO CLOUDS BELOW 12,000 FEET WITH NO
SIGNIFICANT WEATHER AND/OR OBSTRUCTIONS TO VISIBILITY.

* THESE STATIONS ARE NOT UNDER NWS QUALITY CONTROL. THEY ALSO MAY NOT
  REPORT WEATHER SUCH AS PRECIPITATION OR FOG.

ILZ001-002-007-009-015-016-024-052100-
NORTHWEST ILLINOIS

CITY           SKY/WX    TMP DP  RH WIND       PRES   REMARKS
MOLINE         SUNNY     12   0  58 W9        30.55F WCI   0
STERLING*      SUNNY     16   1  53 W12       30.53S WCI   3
SAVANNA*       SUNNY     14  -2  48 W7        30.53F WCI   4
$$

ILZ003-004-008-010-011-017-018-052100-
NORTH CENTRAL ILLINOIS

CITY           SKY/WX    TMP DP  RH WIND       PRES   REMARKS
ROCKFORD       SUNNY     12  -3  51 NW13      30.51  WCI  -3
FREEPORT*      SUNNY     10  -4  53 W7        30.51F WCI  -1
ROCHELLE*      SUNNY     13  -1  55 NW10      30.50F WCI   0
DE KALB*       SUNNY     10  -2  57 W14G20    30.48F WCI  -5
PERU*          SUNNY     15   1  54 W8        30.53S WCI   4
$$

ILZ005-006-012>014-019>023-052100-
NORTHEAST ILLINOIS

CITY           SKY/WX    TMP DP  RH WIND       PRES   REMARKS
CHICAGO-OHARE  SUNNY     15  -3  44 W12       30.47S WCI   2
CHICAGO-MIDWAY SUNNY     19  -2  39 NW9       30.48  WCI   8
AURORA         SUNNY     14   0  53 W15       30.50F WCI  -1
LANSING*       SUNNY     19  -3  38 NW7       30.47S WCI  10
JOLIET*        SUNNY     14  -2  48 NW9G16    30.51S WCI   2
WAUKEGAN       SUNNY     14  -6  40 W10       30.46  WCI   1
DUPAGE AIRPORT SUNNY     14  -2  49 W9        30.47F WCI   2
KANKAKEE*      SUNNY     16   2  54 NW12      30.50S WCI   3
WHEELING       SUNNY     16  -4  41 NW10      30.49S WCI   4
MORRIS*        SUNNY     14   3  60 NW12      30.51S WCI   0
ROMEOVILLE*    SUNNY     15   0  51 NW10G18   30.49S WCI   2
NORTHERLY ISL    N/A     18  -4  37 W7          N/A  WCI   9
$$

LMZ740>746-052100-
SOUTHERN LAKE MICHIGAN

STATION/POSITION SKY/WX   TEMP    WIND        PRES    VSBY  WAVE
                          AIR SEA DIR/SP/G                  HT/PER
                          (F)     (DEG/KT/KT) (MB)    (MI)  (FT/S)
WAUKEGAN HARBOR            14                   N/A
HARRISON CRIB              15     310/  9/ 13   N/A
BURNHAM HARBOR             18     250/  9/ 13   N/A
CALUMET HARBOR             17     290/  8/ 13 1030.3F
MICHIGAN CITY              18     290/ 13/ 16   N/A
$$

ILZ025>027-034>036-040-047-049-050-058-095>099-052100-
WEST-CENTRAL ILLINOIS

CITY           SKY/WX    TMP DP  RH WIND       PRES   REMARKS
QUINCY         SUNNY     16   1  51 NW9       30.54  WCI   4
GALESBURG*     SUNNY     13   2  63 NW9G16    30.53F WCI   0
MACOMB*        SUNNY     13   2  62 NW9       30.57F WCI   1
JACKSONVILLE*  SUNNY     18   3  53 W9        30.54F WCI   7
PITTSFIELD*    SUNNY     18   5  56 NW7       30.55F WCI   9
$$

ILZ028>032-037-038-041>044-048-051>054-059>061-052100-
CENTRAL ILLINOIS

CITY           SKY/WX    TMP DP  RH WIND       PRES   REMARKS
PONTIAC        SUNNY     14   3  61 NW12G17   30.52S WCI   1
BLOOMINGTON    SUNNY     15   2  56 NW10      30.51  WCI   2
DECATUR        SUNNY     16   3  56 NW14      30.52  WCI   2
PEORIA         SUNNY     15  -1  49 NW9       30.54  WCI   3
LACON*         SUNNY     13   1  57 NW8       30.54S WCI   2
LINCOLN*       SUNNY     18   1  46 NW10G17   30.56S WCI   6
SPRINGFIELD    SUNNY     18   2  49 NW13      30.54F WCI   5
TAYLORVILLE    SUNNY     18   3  53 NW10G21   30.53F WCI   6
$$

ILZ033-039-045-046-055>057-062-063-052100-
EAST-CENTRAL ILLINOIS

CITY           SKY/WX    TMP DP  RH WIND       PRES   REMARKS
CHAMPAIGN      MOSUNNY   14   4  64 NW13      30.50S WCI   0
DANVILLE*      SUNNY     16   4  60 NW12      30.47S WCI   2
RANTOUL*       SUNNY     16   4  59 NW13      30.50S WCI   2
MATTOON        SUNNY     16   4  59 NW17      30.50  WCI   0
PARIS*         SUNNY     17   6  59 N13       30.51S WCI   4
$$

ILZ079-100>102-052100-
SOUTHWEST ILLINOIS

CITY           SKY/WX    TMP DP  RH WIND       PRES   REMARKS
ALTON          MOSUNNY   21   0  39 MISG      30.55
BELLEVILLE     MOSUNNY   24  10  54 NW8       30.53  WCI  16
CAHOKIA*       MOSUNNY   24   8  50 NW5       30.55F WCI  18
SPARTA*        MOSUNNY   22   7  52 N9        30.55S WCI  12
$$

ILZ064>066-069>071-074>076-080>082-084>086-088>090-092>094-052100-
SOUTH-CENTRAL ILLINOIS

CITY           SKY/WX    TMP DP  RH WIND       PRES   REMARKS
CARBONDALE     SUNNY     22   5  48 N9        30.55S WCI  12
CAIRO*         SUNNY     30  12  47 NW12      30.53S WCI  20
EFFINGHAM*     SUNNY     19   1  45 NW13G18   30.54S WCI   5
MARION         SUNNY     23   7  50 NW14      30.55S WCI  11
MT. VERNON     SUNNY     21   3  45 N7G16     30.54S WCI  13
CENTRALIA*     SUNNY     20   5  51 NW13      30.54S WCI   7
SALEM*         SUNNY     21   6  52 NW10      30.54S WCI  10
METROPOLIS*    SUNNY     27  10  48 NW10      30.51S WCI  17
$$

ILZ067-068-072-073-078-083-087-091-052100-
SOUTHEAST ILLINOIS

CITY           SKY/WX    TMP DP  RH WIND       PRES   REMARKS
LAWRENCEVILLE  SUNNY     22   4  46 NW10      30.51  WCI  11
FLORA*         SUNNY     20   4  50 NW13G20   30.54S WCI   7
FAIRFIELD*     SUNNY     21   5  50 N14       30.52F WCI   8
HARRISBURG*    SUNNY     23   6  48 N8        30.54S WCI  14
ROBINSON*      SUNNY     20   6  54 NW14      30.53R WCI   7
CARMI*         SUNNY     24  11  56 N15G21    30.53R WCI  11
$$

ABBREVIATIONS USED IN REMARKS
   TC - TEMPERATURE IN CELSIUS
  WCI - WIND CHILL INDEX
   HX - HEAT INDEX
  VSB - VISIBILITY
$$



USA.gov is the U.S. government's official web portal to all federal, state and local government web resources and services.